SL-16 DEB

Satellite information

Favourite Embed

Satellite Type and Status

DEBRISIN ORBIT

Key statistics

Satellite SL-16 DEB at a glance.

Uptime

11899

Days in orbit

Revolutions

≈ 13.9

Per day

Orbit

LEO

Low Earth Orbit

Inclination

71.0

Latest

Satellite identification and parameters

Extended collection of information and parameters for SL-16 DEB.

Object identification

Identified? True

Debris? True

Object name: SL-16 DEB

International designator: 1993-016P

Object number (NORAD): 22605

Object ID (CCSDS): 22605

Country: COMMONWEALTH OF INDEPENDENT STATES (CIS)

Current information (Y/N): Y

RCS size: SMALL

Orbital parameters

Period: 103.521 minutes

Inclination: 70.9948 deg

SMA: 7303.168 km

Apoapsis: 1019.295 km

Periapsis: 830.772 km

RAAN: 97.9446 deg

Eccentricy: 0.01290691

Argument of periapsis: 23.5478 deg

Mean anomaly: 128.0866 deg

Mean motion: 13.91027783 rev/day

Mean motion (dot): 0.00000273 rev/day2

B* drag term: 0.00023673589 1/REarth

Two-line elements (TLE)

Creation date: Oct. 23, 2025, 2:46 a.m.

Reference frame: TEME

Reference center: EARTH

Epoch: Oct. 22, 2025, 9:59 p.m. UTC

TLE line 0: 0 SL-16 DEB

TLE line 1: 1 22605U 93016P 25295.91605410 .00000273 00000-0 23674-3 0 9990

TLE line 2: 2 22605 70.9948 97.9446 0129069 23.5478 128.0866 13.91027783651283

Live tracking on map

Real-time ground track for satellite SL-16 DEB.

In-orbit conjunctions

A list of the most updated potential collisions computed for object SL-16 DEB.

Target Orbit TCA Probability of collision Miss distance Type
NOAA 16 DEB SSO 2025-02-14 18:44:31 0.0001572059 179.0 (m) DEBRIS
FENGYUN 1C DEB SSO 2024-09-30 16:02:56 0.0001091815 76.0 (m) DEBRIS
FENGYUN 1C DEB SSO 2024-09-23 16:40:42 0.0001222526 143.0 (m) DEBRIS

Associated space launch

Second generation ELING satellite

SL-16 DEB was lifted into orbit during the mission ‘Zenit-2 | Tselina-2 13’, on board a Zenit-2 space rocket.

The launch took place on March 26, 1993, 2:21 a.m. from 45/1.

For more information about the launch, click the button.

Launch to space Zenit-2 | Tselina-2 13
Zenit-2 | Tselina-2 13

Agency: N/A

Status: Launch Successful

Launch date: March 26, 1993, 2:21 a.m. UTC

Rocket: Zenit-2

Launch pad: 45/1

Location: Baikonur Cosmodrome, Republic of Kazakhstan

...

Latest news about this satellite

There are no fresh news available about this satellite. Check back as we update our databases every day.


Newsletter sign-up

Weekly statistics, charts and insights to help you stay on top of the space industry.